| time (UTC) | temp F | wind direction | speed MPH | gust MPH | rain 1hr in | rain 24hr in | rain mn in | humidity % | barometer mb |
| 20260506102014 | 57 | 57 | 2.0 | 8.0 | 0.00 | 0.00 | 0.00 | 88 | 1010.1 |
| 20260506101538 | 57 | 1 | 1.0 | 8.0 | 0.00 | 0.00 | 0.00 | 88 | 1010.0 |
| 20260506101010 | 57 | 39 | 3.0 | 8.0 | 0.00 | 0.00 | 0.00 | 88 | 1010.0 |
| 20260506100506 | 58 | 42 | 2.0 | 7.0 | 0.00 | 0.00 | 0.00 | 88 | 1009.9 |
| 20260506100027 | 58 | 42 | 2.0 | 6.0 | 0.00 | 0.00 | 0.00 | 87 | 1009.8 |
| 20260506095506 | 58 | 96 | 1.0 | 8.0 | 0.00 | 0.00 | 0.00 | 87 | 1009.7 |
| 20260506095009 | 58 | 352 | 2.0 | 8.0 | 0.00 | 0.00 | 0.00 | 87 | 1009.7 |
| 20260506094504 | 59 | 5 | 1.0 | 7.0 | 0.00 | 0.00 | 0.00 | 87 | 1009.7 |
| 20260506094002 | 59 | 319 | 3.0 | 6.0 | 0.00 | 0.00 | 0.00 | 87 | 1009.7 |
| 20260506093504 | 59 | 124 | 0.0 | 6.0 | 0.00 | 0.00 | 0.00 | 87 | 1009.6 |
| 20260506093009 | 59 | 97 | 2.0 | 6.0 | 0.00 | 0.00 | 0.00 | 86 | 1009.6 |
| 20260506092507 | 59 | 281 | 1.0 | 6.0 | 0.00 | 0.00 | 0.00 | 86 | 1009.7 |
| 20260506092003 | 60 | 14 | 1.0 | 5.0 | 0.00 | 0.00 | 0.00 | 85 | 1009.6 |
| 20260506091510 | 60 | 274 | 2.0 | 5.0 | 0.00 | 0.00 | 0.00 | 85 | 1009.6 |
| 20260506091004 | 60 | 319 | 1.0 | 6.0 | 0.00 | 0.00 | 0.00 | 84 | 1009.6 |
| 20260506090502 | 61 | 333 | 2.0 | 6.0 | 0.00 | 0.00 | 0.00 | 83 | 1009.5 |
| 20260506090008 | 62 | 347 | 0.0 | 6.0 | 0.00 | 0.00 | 0.00 | 82 | 1009.3 |
| 20260506085503 | 62 | 323 | 2.0 | 5.0 | 0.00 | 0.00 | 0.00 | 82 | 1009.4 |
| 20260506085003 | 62 | 51 | 0.0 | 2.0 | 0.00 | 0.00 | 0.00 | 82 | 1009.3 |
| 20260506084509 | 62 | 8 | 0.0 | 4.0 | 0.00 | 0.00 | 0.00 | 82 | 1009.3 |
| 20260506084003 | 62 | 29 | 1.0 | 4.0 | 0.00 | 0.00 | 0.00 | 81 | 1009.2 |
| 20260506083502 | 62 | 6 | 1.0 | 4.0 | 0.00 | 0.00 | 0.00 | 81 | 1009.2 |
| 20260506083002 | 62 | 1 | 1.0 | 4.0 | 0.00 | 0.00 | 0.00 | 81 | 1009.0 |
| 20260506082504 | 62 | 41 | 1.0 | 4.0 | 0.00 | 0.00 | 0.00 | 82 | 1009.0 |
| 20260506082001 | 62 | 60 | 1.0 | 4.0 | 0.00 | 0.00 | 0.00 | 82 | 1008.9 |
| 20260506081505 | 62 | 26 | 1.0 | 7.0 | 0.00 | 0.00 | 0.00 | 81 | 1008.8 |
| 20260506081008 | 63 | 42 | 1.0 | 7.0 | 0.00 | 0.00 | 0.00 | 81 | 1008.8 |
| 20260506080504 | 63 | 72 | 1.0 | 7.0 | 0.00 | 0.00 | 0.00 | 82 | 1008.8 |
| 20260506073506 | 63 | 312 | 0.0 | 4.0 | 0.00 | 0.00 | 0.00 | 81 | 1009.1 |
| 20260506073012 | 63 | 340 | 1.0 | 4.0 | 0.00 | 0.00 | 0.00 | 81 | 1009.1 |
| 20260506072504 | 63 | 22 | 2.0 | 5.0 | 0.00 | 0.00 | 0.00 | 81 | 1009.1 |
| 20260506072003 | 63 | 81 | 2.0 | 5.0 | 0.00 | 0.00 | 0.00 | 81 | 1009.2 |
| 20260506071506 | 64 | 125 | 1.0 | 6.0 | 0.00 | 0.00 | 0.00 | 81 | 1009.1 |
| 20260506071005 | 64 | 51 | 1.0 | 6.0 | 0.00 | 0.00 | 0.00 | 81 | 1009.1 |
| 20260506070504 | 64 | 98 | 0.0 | 3.0 | 0.00 | 0.00 | 0.00 | 81 | 1009.2 |
| 20260506062507 | 65 | 51 | 4.0 | 8.0 | 0.00 | 0.00 | 0.00 | 80 | 1009.0 |
| 20260506062006 | 65 | 56 | 4.0 | 8.0 | 0.00 | 0.00 | 0.00 | 80 | 1009.1 |
| 20260506061511 | 65 | 70 | 1.0 | 6.0 | 0.00 | 0.00 | 0.00 | 81 | 1009.0 |
| 20260506061002 | 66 | 31 | 2.0 | 6.0 | 0.00 | 0.00 | 0.00 | 80 | 1008.9 |
| 20260506060504 | 66 | 63 | 2.0 | 6.0 | 0.00 | 0.00 | 0.00 | 80 | 1008.8 |
| 20260506051003 | 69 | 347 | 1.0 | 6.0 | 0.00 | 0.00 | 0.00 | 79 | 1008.7 |
| 20260506050503 | 69 | 33 | 2.0 | 6.0 | 0.00 | 0.00 | 0.00 | 79 | 1008.6 |
| 20260506045005 | 70 | 355 | 1.0 | 8.0 | 0.00 | 0.00 | 0.00 | 78 | 1008.6 |
| 20260506044509 | 70 | 359 | 1.0 | 8.0 | 0.00 | 0.00 | 0.00 | 78 | 1008.5 |
| 20260506044005 | 70 | 47 | 0.0 | 7.0 | 0.00 | 0.00 | 0.00 | 78 | 1008.5 |
| 20260506043508 | 70 | 302 | 2.0 | 7.0 | 0.00 | 0.00 | 0.00 | 77 | 1008.4 |
| 20260506043011 | 70 | 347 | 2.0 | 7.0 | 0.00 | 0.00 | 0.00 | 77 | 1008.6 |
| 20260506042508 | 71 | 42 | 2.0 | 6.0 | 0.00 | 0.00 | 0.00 | 76 | 1008.4 |
| 20260506042007 | 71 | 3 | 1.0 | 6.0 | 0.00 | 0.00 | 0.00 | 76 | 1008.4 |
| 20260506041514 | 71 | 48 | 1.0 | 7.0 | 0.00 | 0.00 | 0.00 | 76 | 1008.4 |
| 20260506041009 | 71 | 77 | 2.0 | 7.0 | 0.00 | 0.00 | 0.00 | 76 | 1008.3 |
| 20260506040506 | 72 | 174 | 1.0 | 7.0 | 0.00 | 0.00 | 0.00 | 76 | 1008.2 |
| 20260506040032 | 72 | 68 | 1.0 | 6.0 | 0.00 | 0.00 | 0.00 | 75 | 1008.2 |
| 20260506035507 | 72 | 45 | 2.0 | 6.0 | 0.00 | 0.00 | 0.00 | 75 | 1008.1 |
| 20260506035007 | 72 | 4 | 2.0 | 4.0 | 0.00 | 0.00 | 0.00 | 75 | 1007.9 |
| 20260506034514 | 72 | 21 | 0.0 | 3.0 | 0.00 | 0.00 | 0.00 | 75 | 1007.9 |
| 20260506034006 | 73 | 39 | 0.0 | 3.0 | 0.00 | 0.00 | 0.00 | 75 | 1008.0 |
| 20260506033504 | 73 | 20 | 0.0 | 4.0 | 0.00 | 0.00 | 0.00 | 76 | 1007.7 |
| 20260506033010 | 73 | 77 | 1.0 | 4.0 | 0.00 | 0.00 | 0.00 | 75 | 1007.6 |
| 20260506032508 | 73 | 58 | 0.0 | 6.0 | 0.00 | 0.00 | 0.00 | 75 | 1007.6 |
| 20260506032008 | 73 | 34 | 1.0 | 7.0 | 0.00 | 0.00 | 0.00 | 74 | 1007.6 |
| 20260506031514 | 74 | 29 | 1.0 | 7.0 | 0.00 | 0.00 | 0.00 | 74 | 1007.8 |
| 20260506031007 | 74 | 302 | 1.0 | 8.0 | 0.00 | 0.00 | 0.00 | 74 | 1007.9 |
| 20260506030508 | 75 | 25 | 2.0 | 10.0 | 0.00 | 0.00 | 0.00 | 74 | 1007.7 |
| 20260506030016 | 76 | 51 | 2.0 | 10.0 | 0.00 | 0.00 | 0.00 | 74 | 1007.5 |
| 20260506025507 | 77 | 54 | 0.0 | 3.0 | 0.00 | 0.00 | 0.00 | 83 | 1007.3 |
| 20260506025007 | 77 | 281 | 0.0 | 1.0 | 0.00 | 0.00 | 0.00 | 84 | 1007.1 |
| 20260506024518 | 77 | 280 | 0.0 | 1.0 | 0.00 | 0.00 | 0.00 | 84 | 1007.1 |
| 20260506024010 | 77 | 253 | 0.0 | 1.0 | 0.00 | 0.00 | 0.00 | 84 | 1007.0 |
| 20260506023508 | 77 | 289 | 0.0 | 5.0 | 0.00 | 0.00 | 0.00 | 84 | 1006.7 |
| 20260506023026 | 77 | 210 | 1.0 | 5.0 | 0.00 | 0.00 | 0.00 | 84 | 1006.5 |
| 20260506022504 | 77 | 212 | 0.0 | 3.0 | 0.00 | 0.00 | 0.00 | 84 | 1006.5 |
| 20260506022003 | 77 | 227 | 1.0 | 3.0 | 0.00 | 0.00 | 0.00 | 84 | 1006.2 |
| 20260506021523 | 77 | 169 | 0.0 | 1.0 | 0.00 | 0.00 | 0.00 | 84 | 1005.9 |
| 20260506021008 | 77 | 237 | 0.0 | 4.0 | 0.00 | 0.00 | 0.00 | 84 | 1005.9 |
| 20260506020507 | 77 | 209 | 0.0 | 4.0 | 0.00 | 0.00 | 0.00 | 84 | 1005.8 |
| 20260506020016 | 77 | 161 | 1.0 | 2.0 | 0.00 | 0.00 | 0.00 | 84 | 1005.8 |
| 20260506015507 | 78 | 143 | 0.0 | 2.0 | 0.00 | 0.00 | 0.00 | 84 | 1005.8 |
| 20260506015012 | 77 | 1 | 0.0 | 1.0 | 0.00 | 0.00 | 0.00 | 84 | 1005.9 |
| 20260506014516 | 78 | 9 | 0.0 | 2.0 | 0.00 | 0.00 | 0.00 | 84 | 1006.0 |
| 20260506014007 | 78 | 287 | 0.0 | 2.0 | 0.00 | 0.00 | 0.00 | 84 | 1005.7 |
| 20260506013508 | 78 | 328 | 1.0 | 2.0 | 0.00 | 0.00 | 0.00 | 83 | 1005.5 |
| 20260506013018 | 78 | 158 | 0.0 | 1.0 | 0.00 | 0.00 | 0.00 | 82 | 1005.3 |
| 20260506012507 | 78 | 157 | 0.0 | 4.0 | 0.00 | 0.00 | 0.00 | 82 | 1005.4 |
| 20260506012007 | 78 | 184 | 1.0 | 5.0 | 0.00 | 0.00 | 0.00 | 82 | 1005.2 |
| 20260506011507 | 79 | 167 | 1.0 | 5.0 | 0.00 | 0.00 | 0.00 | 82 | 1005.0 |
| 20260506011008 | 79 | 201 | 0.0 | 5.0 | 0.00 | 0.00 | 0.00 | 81 | 1004.9 |
| 20260506010511 | 79 | 108 | 1.0 | 5.0 | 0.00 | 0.00 | 0.00 | 81 | 1004.8 |
| 20260506010030 | 79 | 144 | 1.0 | 7.0 | 0.00 | 0.00 | 0.00 | 81 | 1004.7 |
| 20260506005508 | 79 | 131 | 2.0 | 7.0 | 0.00 | 0.00 | 0.00 | 80 | 1004.8 |
| 20260506005008 | 80 | 195 | 1.0 | 7.0 | 0.00 | 0.00 | 0.00 | 80 | 1005.0 |
| 20260506004520 | 80 | 119 | 3.0 | 11.0 | 0.00 | 0.00 | 0.00 | 79 | 1005.0 |
| 20260506004007 | 80 | 130 | 3.0 | 11.0 | 0.00 | 0.00 | 0.00 | 79 | 1005.0 |
| 20260506003512 | 81 | 150 | 2.0 | 8.0 | 0.00 | 0.00 | 0.00 | 78 | 1004.7 |
| 20260506003004 | 81 | 9 | 2.0 | 9.0 | 0.00 | 0.00 | 0.00 | 78 | 1004.7 |
| 20260506002506 | 82 | 174 | 2.0 | 9.0 | 0.00 | 0.00 | 0.00 | 77 | 1004.7 |
| 20260506002004 | 82 | 98 | 1.0 | 6.0 | 0.00 | 0.00 | 0.00 | 78 | 1004.6 |
| 20260506001508 | 82 | 120 | 1.0 | 6.0 | 0.00 | 0.00 | 0.00 | 78 | 1004.6 |
| 20260506001004 | 82 | 148 | 2.0 | 8.0 | 0.00 | 0.00 | 0.00 | 77 | 1004.5 |
| 20260506000508 | 82 | 155 | 1.0 | 8.0 | 0.00 | 0.00 | 0.00 | 78 | 1004.5 |
| 20260506000013 | 81 | 153 | 2.0 | 10.0 | 0.00 | 0.00 | 0.00 | 78 | 1004.5 |
| 20260505235504 | 82 | 142 | 4.0 | 11.0 | 0.00 | 0.00 | 0.00 | 77 | 1004.5 |
| 20260505235007 | 82 | 186 | 3.0 | 11.0 | 0.00 | 0.00 | 0.00 | 77 | 1004.6 |
| 20260505234531 | 82 | 106 | 4.0 | 8.0 | 0.00 | 0.00 | 0.00 | 77 | 1004.8 |
| 20260505234007 | 82 | 165 | 2.0 | 7.0 | 0.00 | 0.00 | 0.00 | 77 | 1004.9 |
| 20260505233506 | 82 | 173 | 2.0 | 10.0 | 0.00 | 0.00 | 0.00 | 76 | 1004.6 |
| 20260505233032 | 83 | 205 | 3.0 | 11.0 | 0.00 | 0.00 | 0.00 | 76 | 1004.5 |
| 20260505232508 | 83 | 134 | 3.0 | 11.0 | 0.00 | 0.00 | 0.00 | 76 | 1004.5 |
| 20260505232007 | 83 | 201 | 4.0 | 11.0 | 0.00 | 0.00 | 0.00 | 75 | 1004.4 |
| 20260505231503 | 84 | 113 | 5.0 | 11.0 | 0.00 | 0.00 | 0.00 | 75 | 1004.4 |
| 20260505231003 | 84 | 198 | 3.0 | 14.0 | 0.00 | 0.00 | 0.00 | 74 | 1004.4 |
| 20260505230504 | 84 | 276 | 5.0 | 14.0 | 0.00 | 0.00 | 0.00 | 74 | 1004.4 |
| 20260505230010 | 84 | 166 | 2.0 | 13.0 | 0.00 | 0.00 | 0.00 | 75 | 1004.4 |
| 20260505225505 | 84 | 174 | 4.0 | 13.0 | 0.00 | 0.00 | 0.00 | 74 | 1004.4 |
| 20260505225006 | 84 | 206 | 4.0 | 11.0 | 0.00 | 0.00 | 0.00 | 73 | 1004.2 |
| 20260505224514 | 85 | 200 | 4.0 | 10.0 | 0.00 | 0.00 | 0.00 | 73 | 1004.2 |
| 20260505224009 | 85 | 185 | 3.0 | 11.0 | 0.00 | 0.00 | 0.00 | 72 | 1004.1 |
| 20260505223512 | 86 | 181 | 5.0 | 11.0 | 0.00 | 0.00 | 0.00 | 72 | 1004.1 |
| 20260505223017 | 86 | 48 | 5.0 | 11.0 | 0.00 | 0.00 | 0.00 | 71 | 1004.1 |
| 20260505222513 | 87 | 179 | 4.0 | 11.0 | 0.00 | 0.00 | 0.00 | 71 | 1004.2 |
| 20260505222009 | 86 | 125 | 3.0 | 11.0 | 0.00 | 0.00 | 0.00 | 72 | 1004.1 |
| 20260505221524 | 87 | 181 | 5.0 | 9.0 | 0.00 | 0.00 | 0.00 | 70 | 1004.0 |
| 20260505221015 | 87 | 165 | 3.0 | 8.0 | 0.00 | 0.00 | 0.00 | 69 | 1003.8 |
| 20260505220507 | 88 | 188 | 2.0 | 9.0 | 0.00 | 0.00 | 0.00 | 68 | 1004.1 |
| 20260505220008 | 88 | 150 | 3.0 | 10.0 | 0.00 | 0.00 | 0.00 | 68 | 1004.2 |
| 20260505215505 | 88 | 208 | 4.0 | 10.0 | 0.00 | 0.00 | 0.00 | 68 | 1004.1 |
| 20260505215005 | 89 | 206 | 4.0 | 10.0 | 0.00 | 0.00 | 0.00 | 66 | 1003.9 |
| 20260505214512 | 89 | 147 | 3.0 | 7.0 | 0.00 | 0.00 | 0.00 | 66 | 1003.9 |
| 20260505214005 | 89 | 129 | 1.0 | 8.0 | 0.00 | 0.00 | 0.00 | 68 | 1003.9 |
| 20260505213507 | 89 | 162 | 2.0 | 9.0 | 0.00 | 0.00 | 0.00 | 66 | 1004.0 |
| 20260505213017 | 88 | 251 | 2.0 | 10.0 | 0.00 | 0.00 | 0.00 | 67 | 1004.2 |
| 20260505212508 | 88 | 255 | 3.0 | 10.0 | 0.00 | 0.00 | 0.00 | 66 | 1004.2 |
| 20260505212009 | 88 | 170 | 3.0 | 11.0 | 0.00 | 0.00 | 0.00 | 68 | 1004.2 |
| 20260505211520 | 88 | 232 | 4.0 | 11.0 | 0.00 | 0.00 | 0.00 | 66 | 1004.2 |
| 20260505211008 | 88 | 207 | 5.0 | 13.0 | 0.00 | 0.00 | 0.00 | 66 | 1004.4 |
| 20260505210510 | 88 | 198 | 3.0 | 13.0 | 0.00 | 0.00 | 0.00 | 68 | 1004.5 |
| 20260505210022 | 88 | 187 | 5.0 | 12.0 | 0.00 | 0.00 | 0.00 | 67 | 1004.3 |
| 20260505205509 | 88 | 210 | 2.0 | 12.0 | 0.00 | 0.00 | 0.00 | 68 | 1004.3 |
| 20260505205010 | 88 | 127 | 3.0 | 10.0 | 0.00 | 0.00 | 0.00 | 68 | 1004.5 |
| 20260505204511 | 88 | 131 | 5.0 | 10.0 | 0.00 | 0.00 | 0.00 | 68 | 1004.6 |
| 20260505204010 | 88 | 130 | 3.0 | 10.0 | 0.00 | 0.00 | 0.00 | 68 | 1004.7 |
| 20260505203505 | 88 | 241 | 3.0 | 12.0 | 0.00 | 0.00 | 0.00 | 67 | 1004.9 |
| 20260505203026 | 87 | 154 | 3.0 | 12.0 | 0.00 | 0.00 | 0.00 | 68 | 1004.8 |
| 20260505202509 | 88 | 222 | 5.0 | 12.0 | 0.00 | 0.00 | 0.00 | 67 | 1005.0 |
| 20260505202009 | 87 | 113 | 4.0 | 12.0 | 0.00 | 0.00 | 0.00 | 68 | 1005.0 |
| 20260505201528 | 87 | 108 | 4.0 | 12.0 | 0.00 | 0.00 | 0.00 | 69 | 1005.0 |
| 20260505201008 | 87 | 195 | 4.0 | 10.0 | 0.00 | 0.00 | 0.00 | 68 | 1005.1 |
| 20260505200509 | 86 | 45 | 2.0 | 11.0 | 0.00 | 0.00 | 0.00 | 70 | 1005.2 |
| 20260505200021 | 86 | 117 | 5.0 | 11.0 | 0.00 | 0.00 | 0.00 | 69 | 1005.2 |
| 20260505195513 | 86 | 219 | 3.0 | 11.0 | 0.00 | 0.00 | 0.00 | 70 | 1005.2 |
| 20260505195010 | 86 | 227 | 5.0 | 12.0 | 0.00 | 0.00 | 0.00 | 70 | 1005.3 |
| 20260505194523 | 86 | 173 | 4.0 | 12.0 | 0.00 | 0.00 | 0.00 | 69 | 1005.3 |
| 20260505194014 | 85 | 221 | 5.0 | 11.0 | 0.00 | 0.00 | 0.00 | 70 | 1005.3 |
| 20260505193503 | 86 | 203 | 5.0 | 11.0 | 0.00 | 0.00 | 0.00 | 70 | 1005.3 |
| 20260505193013 | 85 | 212 | 5.0 | 12.0 | 0.00 | 0.00 | 0.00 | 70 | 1005.3 |
| 20260505192508 | 85 | 210 | 5.0 | 12.0 | 0.00 | 0.00 | 0.00 | 70 | 1005.3 |
| 20260505192006 | 85 | 95 | 3.0 | 11.0 | 0.00 | 0.00 | 0.00 | 71 | 1005.3 |
| 20260505191520 | 85 | 214 | 3.0 | 12.0 | 0.00 | 0.00 | 0.00 | 71 | 1005.4 |
| 20260505191011 | 85 | 214 | 4.0 | 12.0 | 0.00 | 0.00 | 0.00 | 72 | 1005.4 |
| 20260505190506 | 84 | 194 | 6.0 | 12.0 | 0.00 | 0.00 | 0.00 | 71 | 1005.5 |
| 20260505190022 | 84 | 293 | 4.0 | 13.0 | 0.00 | 0.00 | 0.00 | 72 | 1005.6 |
| 20260505185510 | 84 | 219 | 5.0 | 13.0 | 0.00 | 0.00 | 0.00 | 72 | 1005.6 |
| 20260505185012 | 84 | 171 | 5.0 | 11.0 | 0.00 | 0.00 | 0.00 | 73 | 1005.6 |
| 20260505184527 | 83 | 232 | 4.0 | 14.0 | 0.00 | 0.00 | 0.00 | 73 | 1005.7 |
| 20260505184012 | 83 | 166 | 7.0 | 14.0 | 0.00 | 0.00 | 0.00 | 71 | 1005.7 |
| 20260505183511 | 83 | 139 | 4.0 | 14.0 | 0.00 | 0.00 | 0.00 | 72 | 1005.8 |
| 20260505183027 | 83 | 187 | 7.0 | 14.0 | 0.00 | 0.00 | 0.00 | 72 | 1005.9 |
| 20260505182517 | 83 | 229 | 4.0 | 12.0 | 0.00 | 0.00 | 0.00 | 72 | 1005.9 |
| 20260505182007 | 83 | 196 | 4.0 | 13.0 | 0.00 | 0.00 | 0.00 | 73 | 1005.9 |
| 20260505181514 | 82 | 146 | 5.0 | 16.0 | 0.00 | 0.00 | 0.00 | 73 | 1006.0 |
| 20260505181009 | 82 | 252 | 5.0 | 16.0 | 0.00 | 0.00 | 0.00 | 73 | 1005.9 |
| 20260505180508 | 82 | 209 | 7.0 | 18.0 | 0.00 | 0.00 | 0.00 | 72 | 1006.0 |
| 20260505180037 | 82 | 125 | 7.0 | 18.0 | 0.00 | 0.00 | 0.00 | 74 | 1005.9 |
| 20260505175509 | 82 | 307 | 5.0 | 14.0 | 0.00 | 0.00 | 0.00 | 75 | 1005.8 |
| 20260505175008 | 81 | 233 | 2.0 | 16.0 | 0.00 | 0.00 | 0.00 | 77 | 1005.9 |
| 20260505174545 | 80 | 252 | 7.0 | 16.0 | 0.00 | 0.00 | 0.00 | 75 | 1005.8 |
| 20260505174009 | 81 | 176 | 8.0 | 16.0 | 0.00 | 0.00 | 0.00 | 74 | 1005.8 |
| 20260505173508 | 81 | 188 | 4.0 | 13.0 | 0.00 | 0.00 | 0.00 | 75 | 1005.8 |
| 20260505173032 | 81 | 187 | 6.0 | 13.0 | 0.00 | 0.00 | 0.00 | 75 | 1005.9 |
| 20260505172511 | 81 | 146 | 4.0 | 14.0 | 0.00 | 0.00 | 0.00 | 76 | 1005.9 |
| 20260505172012 | 81 | 165 | 5.0 | 14.0 | 0.00 | 0.00 | 0.00 | 76 | 1005.8 |
| 20260505171526 | 80 | 237 | 2.0 | 12.0 | 0.00 | 0.00 | 0.00 | 78 | 1005.9 |
| 20260505171011 | 79 | 187 | 1.0 | 14.0 | 0.00 | 0.00 | 0.00 | 79 | 1005.8 |
| 20260505170505 | 79 | 214 | 6.0 | 14.0 | 0.00 | 0.00 | 0.00 | 78 | 1005.7 |
| 20260505170018 | 79 | 189 | 7.0 | 14.0 | 0.00 | 0.00 | 0.00 | 78 | 1005.7 |
| 20260505165509 | 79 | 173 | 6.0 | 14.0 | 0.00 | 0.00 | 0.00 | 78 | 1005.7 |
| 20260505165009 | 79 | 183 | 7.0 | 14.0 | 0.00 | 0.00 | 0.00 | 78 | 1005.7 |
| 20260505164522 | 79 | 146 | 6.0 | 15.0 | 0.00 | 0.00 | 0.00 | 78 | 1005.8 |
| 20260505164008 | 79 | 217 | 4.0 | 15.0 | 0.00 | 0.00 | 0.00 | 78 | 1005.8 |
| 20260505163510 | 78 | 199 | 5.0 | 13.0 | 0.00 | 0.00 | 0.00 | 78 | 1005.9 |
| 20260505163025 | 78 | 202 | 7.0 | 14.0 | 0.00 | 0.00 | 0.00 | 78 | 1006.0 |
| 20260505162508 | 78 | 205 | 5.0 | 14.0 | 0.00 | 0.00 | 0.00 | 79 | 1006.0 |
| 20260505162010 | 78 | 212 | 7.0 | 14.0 | 0.00 | 0.00 | 0.00 | 79 | 1006.0 |
| 20260505161528 | 77 | 196 | 6.0 | 20.0 | 0.00 | 0.00 | 0.00 | 80 | 1005.9 |
| 20260505161009 | 77 | 211 | 7.0 | 20.0 | 0.00 | 0.00 | 0.00 | 79 | 1005.9 |
| 20260505160508 | 77 | 156 | 9.0 | 20.0 | 0.00 | 0.00 | 0.00 | 79 | 1005.8 |
| 20260505153006 | 75 | 174 | 8.0 | 16.0 | 0.00 | 0.00 | 0.00 | 82 | 1005.7 |
| 20260505152505 | 75 | 230 | 6.0 | 16.0 | 0.00 | 0.00 | 0.00 | 82 | 1005.8 |
| 20260505152007 | 75 | 95 | 6.0 | 19.0 | 0.00 | 0.00 | 0.00 | 82 | 1005.9 |
| 20260505151512 | 75 | 185 | 8.0 | 19.0 | 0.00 | 0.00 | 0.00 | 82 | 1006.1 |
| 20260505151009 | 75 | 200 | 7.0 | 15.0 | 0.00 | 0.00 | 0.00 | 82 | 1006.1 |
| 20260505150510 | 75 | 198 | 6.0 | 15.0 | 0.00 | 0.00 | 0.00 | 82 | 1006.2 |
| 20260505140504 | 74 | 202 | 8.0 | 16.0 | 0.00 | 0.00 | 0.00 | 84 | 1005.5 |
| 20260505125004 | 70 | 221 | 6.0 | 16.0 | 0.00 | 0.00 | 0.00 | 89 | 1005.2 |
| 20260505124512 | 70 | 162 | 4.0 | 13.0 | 0.00 | 0.00 | 0.00 | 90 | 1005.1 |
| 20260505124008 | 70 | 216 | 5.0 | 13.0 | 0.00 | 0.00 | 0.00 | 90 | 1005.1 |
| 20260505123507 | 70 | 211 | 4.0 | 14.0 | 0.00 | 0.00 | 0.00 | 90 | 1005.1 |
| 20260505123017 | 70 | 196 | 3.0 | 14.0 | 0.00 | 0.00 | 0.00 | 90 | 1005.2 |
| 20260505122507 | 70 | 176 | 3.0 | 13.0 | 0.00 | 0.00 | 0.00 | 90 | 1005.0 |
| 20260505122008 | 69 | 195 | 4.0 | 15.0 | 0.00 | 0.00 | 0.00 | 90 | 1005.0 |
| 20260505121522 | 69 | 216 | 6.0 | 15.0 | 0.00 | 0.00 | 0.00 | 90 | 1004.8 |
| 20260505121009 | 69 | 250 | 5.0 | 12.0 | 0.00 | 0.00 | 0.00 | 90 | 1004.8 |
| 20260505120508 | 69 | 30 | 5.0 | 12.0 | 0.00 | 0.00 | 0.00 | 90 | 1004.8 |
| 20260505120031 | 69 | 213 | 5.0 | 14.0 | 0.00 | 0.00 | 0.00 | 90 | 1004.9 |
| 20260505115505 | 69 | 229 | 6.0 | 14.0 | 0.00 | 0.00 | 0.00 | 90 | 1004.9 |
| 20260505115005 | 69 | 228 | 6.0 | 13.0 | 0.00 | 0.00 | 0.00 | 90 | 1004.8 |
| 20260505114510 | 69 | 256 | 6.0 | 15.0 | 0.00 | 0.00 | 0.00 | 90 | 1004.8 |
| 20260505114007 | 69 | 246 | 6.0 | 15.0 | 0.00 | 0.00 | 0.00 | 90 | 1004.6 |
| 20260505113510 | 69 | 231 | 5.0 | 11.0 | 0.00 | 0.00 | 0.00 | 90 | 1004.8 |
| 20260505113019 | 69 | 165 | 3.0 | 14.0 | 0.00 | 0.00 | 0.00 | 90 | 1004.7 |
| 20260505112507 | 69 | 188 | 7.0 | 16.0 | 0.00 | 0.00 | 0.00 | 90 | 1004.6 |
| 20260505112008 | 69 | 263 | 8.0 | 16.0 | 0.00 | 0.00 | 0.00 | 90 | 1004.6 |
| 20260505111519 | 69 | 197 | 5.0 | 15.0 | 0.00 | 0.00 | 0.00 | 90 | 1004.6 |
| 20260505111010 | 69 | 157 | 5.0 | 15.0 | 0.00 | 0.00 | 0.00 | 90 | 1004.5 |
| 20260505110507 | 69 | 203 | 5.0 | 14.0 | 0.00 | 0.00 | 0.00 | 90 | 1004.5 |